Location: *
(55.6049°S, 142.1985°W)
Time: 00:44:56
(UTC+00:00)

Cosmos 2058 - Pass Details

Date: 12 May 2021
Orbit: 561 x 584 km, 82.5° (Epoch: 18 June)

Event Time Altitude Azimuth Distance (km) Brightness Sun altitude
Exits shadow 14:16:48 54° 168° (SSE) 726 3.4 -24.6°
Maximum altitude 14:17:39 73° 104° (ESE) 626 3.1 -24.5°
Drops below altitude 10° 14:21:54 10° 18° (NNE) 1,922 5.7 -23.9°
Sets 14:24:06 0° 16° (NNE) 2,817 6.6 -23.6°
